[[{"header":{"parameterUnit":"m.s-1","parameterCategory":1,"la1":30.2991,"la2":30.254,"lo1":-89.0895,"lo2":-89.0444,"dy":0.0017,"dx":0.0017,"nx":28,"ny":28,"refTime":"2023-08-22T21:00:00:Z","depth":0,"parameterNumber":2,"parameterNumberName":"U-component_of_WINDS"},"data":[0,0,0,0,0,0,0,0,0,0,0,0,0,0,0,0,0,0,0,0,0,0,0,0,0,0,0,0,0,0,0,0,0,0,0,0,0,0,0,0,0,0,0,0,0,0,0,0,0,0,0,0,0,0,0,0,0,0,1.1056,1.1057,0,1.1157,1.1158,1.1159,1.1209,1.1209,1.1209,1.1209,1.1312,1.1315,1.1317,0,0,0,0,0,0,0,0,0,0,0,0,0,1.0903,1.0905,1.1055,1.1057,1.1058,1.1157,1.1158,1.116,1.1209,1.1209,1.1209,1.1209,1.1311,1.1314,1.1318,0,0,0,0,0,0,0,0,0,0,0,0,0,1.0983,1.0906,1.1055,1.1095,1.1099,1.1157,1.1158,1.116,1.1209,1.1209,1.1209,1.1209,1.131,1.1314,1.1318,1.1344,0,0,1.1331,1.1333,0,0,0,0,0,0,0,0,1.0978,1.0988,1.1087,1.1092,1.1097,1.117,1.1142,1.1222,1.1209,1.1167,1.1209,1.1209,1.1265,1.1273,1.1292,1.1349,1.1353,1.1331,1.1334,1.1335,1.1337,0,0,0,0,0,0,0,1.0973,1.0984,1.1096,1.1089,1.1095,1.1106,1.1118,1.1157,1.1215,1.1171,1.1175,1.1186,1.1267,1.1288,1.1295,1.1355,1.1331,1.1335,1.1337,1.1339,1.1437,1.1438,0,0,0,0,0,0,1.0961,1.0979,1.1092,1.1099,1.1036,1.1109,1.1122,1.1147,1.1215,1.1225,1.1186,1.1188,1.1281,1.129,1.1298,1.1333,1.1335,1.1339,1.1342,1.1437,1.1437,1.1438,0,0,0,0,0,0,1.0957,1.0971,1.1088,1.104,1.1056,1.1112,1.1139,1.1149,1.1169,1.1226,1.1236,1.1196,1.1281,1.1293,1.1332,1.1337,1.1341,1.1345,1.1437,1.1437,1.1437,1.1402,0,0,0,0,0,0,1.0953,1.0969,1.098,1.104,1.1058,1.1121,1.114,1.1151,1.1176,1.118,1.1238,1.1248,1.1282,1.1326,1.1336,1.1343,1.1348,1.1437,1.1437,1.1437,1.1403,1.1401,1.1399,0,0,0,0,0,1.0947,1.0966,1.098,1.0994,1.1073,1.1121,1.1131,1.117,1.1176,1.1187,1.1224,1.1246,1.1335,1.1329,1.1342,1.135,1.1437,1.1437,1.1437,1.1404,1.1401,1.1399,0,0,0,0,0,0,1.0905,1.0974,1.0991,1.103,1.1069,1.1129,1.1145,1.1166,1.1205,1.1206,1.1253,1.1265,1.1301,1.1329,1.1322,1.1378,1.1388,1.1391,1.1358,1.1356,1.1354,1.1347,1.1352,0,0,0,0,0,1.09,1.0933,1.0992,1.1021,1.1039,1.1088,1.1111,1.1137,1.1179,1.1196,1.1236,1.1276,1.1312,1.1336,1.1373,1.1407,1.142,1.1418,1.1416,1.1415,1.1417,1.1436,1.1436,1.1439,1.1439,1.1439,0,0,1.089,1.0932,1.0951,1.1013,1.1047,1.108,1.1102,1.1136,1.1161,1.1201,1.1241,1.1271,1.1319,1.1356,1.1374,1.138,1.1418,1.1415,1.1413,1.1416,1.1436,1.1436,1.1436,1.1439,1.1439,1.1439,0,0,1.0889,1.0925,1.0952,1.0985,1.1036,1.1068,1.1074,1.1131,1.1152,1.1193,1.1224,1.1254,1.1316,1.1349,1.1374,1.1384,1.1405,1.1394,1.1385,1.1403,1.1403,1.1403,1.1406,1.1407,1.1396,1.1396,1.1396,0,1.0871,1.0922,1.0963,1.0996,1.1022,1.106,1.1087,1.1117,1.1177,1.1194,1.12,1.1279,1.1314,1.1359,1.1361,1.138,1.1388,1.1388,1.14,1.14,1.1401,1.1404,1.1405,1.1394,1.1394,1.1395,1.1395,0,1.0897,1.0932,1.0948,1.1005,1.1033,1.1062,1.1107,1.113,1.1154,1.1185,1.1225,1.1268,1.1314,1.1327,1.135,1.1374,1.1377,1.1391,1.1402,1.1398,1.1402,1.1404,1.1392,1.1392,1.1393,1.1393,0,0,1.0873,1.0952,1.0957,1.0983,1.1041,1.1068,1.1099,1.1144,1.1163,1.1202,1.1229,1.1281,1.1294,1.1322,1.1349,1.1365,1.137,1.1377,1.1379,1.1374,1.1398,1.1388,1.1389,1.1384,1.1385,1.1385,1.1394,0,1.0881,1.0939,1.0976,1.1018,1.1051,1.1087,1.1114,1.1151,1.1181,1.1213,1.1245,1.1281,1.1295,1.1312,1.133,1.1365,1.1375,1.1365,1.1409,1.141,1.1396,1.1391,1.138,1.1387,1.1396,1.1397,1.1397,0,1.0897,1.0936,1.0982,1.1036,1.1051,1.1074,1.1118,1.1148,1.1191,1.1211,1.1242,1.1269,1.1303,1.131,1.1357,1.1349,1.1369,1.1389,1.139,1.1396,1.1404,1.1397,1.139,1.1391,1.14,1.14,1.14,0,1.0875,1.0939,1.0974,1.0995,1.1059,1.1074,1.1101,1.1145,1.1169,1.1207,1.1223,1.1264,1.1287,1.1318,1.1356,1.1358,1.1398,1.1409,1.1416,1.1414,1.1423,1.1422,1.142,1.1435,1.1435,1.1435,1.1435,0,1.088,1.0907,1.0965,1.0987,1.1018,1.1059,1.1088,1.1118,1.1156,1.1184,1.1217,1.1242,1.129,1.1321,1.1351,1.1384,1.1394,1.1411,1.1419,1.1409,1.1406,1.1423,1.1423,1.1435,1.1435,1.1435,1.1435,0,1.0861,1.0901,1.0942,1.0999,1.1013,1.1033,1.1081,1.1104,1.1134,1.1169,1.118,1.1228,1.1266,1.1306,1.1358,1.1378,1.141,1.1421,1.1395,1.14,1.1404,1.1403,1.1412,1.1416,1.1428,1.1428,1.1428,0,1.0861,1.0883,1.0941,1.0962,1.0988,1.1022,1.1047,1.1088,1.1113,1.1163,1.1179,1.122,1.1254,1.1313,1.1353,1.1392,1.1404,1.1404,1.141,1.1399,1.1404,1.1402,1.1404,1.1403,1.1402,1.1402,1.1402,0,1.0858,1.0876,1.0912,1.0953,1.0982,1.1017,1.1053,1.1068,1.1116,1.1142,1.1181,1.1208,1.126,1.13,1.1344,1.1371,1.1394,1.1399,1.1403,1.1393,1.1377,1.1386,1.139,1.1399,1.1399,1.14,1.14,1.14,1.0849,1.0869,1.0913,1.0951,1.0982,1.1015,1.1038,1.1072,1.1105,1.1151,1.1174,1.1212,1.1254,1.1316,1.1342,1.1373,1.138,1.1385,1.1386,1.1387,1.1384,1.1372,1.1381,1.1381,1.1381,1.1381,1.1381,0,1.0847,1.0877,1.0911,1.096,1.0989,1.1008,1.1049,1.1072,1.1106,1.1143,1.1176,1.1221,1.1259,1.1301,1.1341,1.1358,1.1369,1.1367,1.1366,1.1372,1.1376,1.1369,1.1357,1.1357,1.1357,1.1357,1.1357,1.1357,1.0849,1.0885,1.0908,1.0959,1.0989,1.1028,1.1049,1.1079,1.1109,1.1157,1.1189,1.1216,1.1255,1.1298,1.1334,1.1345,1.1358,1.1353,1.1367,1.137,1.1372,1.1374,1.1367,1.1355,1.1355,1.1361,1.1361,1.1361]},{"header":{"parameterUnit":"m.s-1","parameterCategory":1,"la1":30.2991,"la2":30.254,"lo1":-89.0895,"lo2":-89.0444,"dy":0.0017,"dx":0.0017,"nx":28,"ny":28,"refTime":"2023-08-22T21:00:00:Z","depth":0,"parameterNumber":3,"parameterNumberName":"V-component_of_WINDS"},"data":[0,0,0,0,0,0,0,0,0,0,0,0,0,0,0,0,0,0,0,0,0,0,0,0,0,0,0,0,0,0,0,0,0,0,0,0,0,0,0,0,0,0,0,0,0,0,0,0,0,0,0,0,0,0,0,0,0,0,2.9687,2.9686,0,2.9638,2.9637,2.9637,2.9608,2.9608,2.9608,2.9608,2.9553,2.9552,2.955,0,0,0,0,0,0,0,0,0,0,0,0,0,2.9751,2.975,2.9687,2.9686,2.9685,2.9638,2.9637,2.9637,2.9608,2.9608,2.9608,2.9608,2.9553,2.9552,2.955,0,0,0,0,0,0,0,0,0,0,0,0,0,2.9714,2.9749,2.9687,2.9666,2.9663,2.9638,2.9637,2.9636,2.9608,2.9608,2.9608,2.9608,2.9554,2.9552,2.955,2.954,0,0,2.9544,2.9543,0,0,0,0,0,0,0,0,2.9717,2.9712,2.9669,2.9667,2.9664,2.9629,2.964,2.9604,2.9608,2.9629,2.9608,2.9608,2.9578,2.9574,2.9565,2.9538,2.9535,2.9543,2.9542,2.9541,2.9541,0,0,0,0,0,0,0,2.9719,2.9714,2.9667,2.9669,2.9666,2.9657,2.9652,2.9633,2.9605,2.9627,2.9625,2.962,2.9577,2.9567,2.9563,2.9535,2.9543,2.9542,2.954,2.954,2.9498,2.9498,0,0,0,0,0,0,2.9726,2.9716,2.9669,2.9666,2.9691,2.9656,2.965,2.964,2.9605,2.9599,2.962,2.9619,2.9571,2.9566,2.9561,2.9548,2.9541,2.9539,2.9538,2.9497,2.9498,2.9498,0,0,0,0,0,0,2.9727,2.9722,2.9671,2.969,2.9683,2.9655,2.9644,2.964,2.963,2.96,2.9594,2.9616,2.957,2.9564,2.9546,2.9546,2.9538,2.9537,2.9497,2.9498,2.9498,2.9522,0,0,0,0,0,0,2.9729,2.9722,2.9719,2.9691,2.9682,2.9658,2.9644,2.9639,2.9627,2.9625,2.9594,2.9589,2.957,2.955,2.9544,2.9543,2.9535,2.9497,2.9497,2.9498,2.9521,2.9523,2.9524,0,0,0,0,0,2.9732,2.9727,2.9719,2.9714,2.9678,2.9658,2.9653,2.9632,2.9627,2.9623,2.9604,2.959,2.9547,2.9548,2.9542,2.954,2.9497,2.9497,2.9498,2.952,2.9522,2.9524,0,0,0,0,0,0,2.9754,2.9723,2.9714,2.97,2.9682,2.9653,2.9647,2.9635,2.9617,2.9615,2.9589,2.9583,2.9567,2.9551,2.9553,2.9529,2.952,2.952,2.954,2.9542,2.9543,2.9547,2.9533,0,0,0,0,0,2.9758,2.9746,2.9718,2.9708,2.97,2.9676,2.9666,2.9652,2.9631,2.9623,2.9602,2.9581,2.9563,2.9552,2.9533,2.9519,2.9511,2.9514,2.9516,2.9518,2.9517,2.9508,2.9509,2.9499,2.9499,2.9499,0,0,2.9765,2.9746,2.9739,2.9713,2.9697,2.9683,2.9669,2.9655,2.9644,2.962,2.9602,2.9586,2.9561,2.9546,2.9537,2.9532,2.9519,2.9518,2.952,2.9518,2.9509,2.951,2.9511,2.9499,2.9499,2.9499,0,0,2.9771,2.9756,2.9746,2.9731,2.9709,2.9693,2.969,2.9663,2.9652,2.9635,2.9617,2.9603,2.9572,2.9555,2.9543,2.9544,2.953,2.9538,2.9547,2.9539,2.954,2.954,2.954,2.9541,2.9538,2.9538,2.9538,0,2.9782,2.9762,2.9742,2.973,2.9718,2.9698,2.9688,2.9674,2.9646,2.9638,2.9633,2.9595,2.9576,2.9556,2.9557,2.9547,2.9543,2.9541,2.9541,2.9542,2.9542,2.9542,2.9542,2.9539,2.9539,2.9539,2.9539,0,2.9776,2.9763,2.9758,2.9733,2.9721,2.971,2.9688,2.9678,2.9665,2.9649,2.9631,2.9609,2.9586,2.958,2.9567,2.9558,2.9556,2.9547,2.9537,2.9545,2.9544,2.9544,2.9541,2.954,2.954,2.954,0,0,2.9794,2.976,2.9758,2.9747,2.9721,2.971,2.9697,2.9677,2.9668,2.965,2.9638,2.9613,2.9605,2.9591,2.9576,2.9569,2.9571,2.956,2.9559,2.9562,2.9559,2.9566,2.9567,2.9562,2.9562,2.9562,2.9562,0,2.9795,2.9774,2.9757,2.9741,2.9728,2.9709,2.9698,2.968,2.9666,2.9651,2.9634,2.9617,2.9608,2.9599,2.9591,2.9572,2.957,2.9572,2.9549,2.9549,2.9556,2.9566,2.9573,2.9574,2.9561,2.9561,2.9561,0,2.9794,2.9778,2.9762,2.9738,2.9732,2.9723,2.9703,2.969,2.9669,2.9659,2.9644,2.9629,2.9614,2.9607,2.9585,2.9587,2.9577,2.9566,2.9566,2.9562,2.9555,2.9562,2.9574,2.9574,2.956,2.956,2.956,0,2.9808,2.9783,2.977,2.9761,2.9733,2.9726,2.9714,2.9694,2.9683,2.9665,2.9657,2.9637,2.9626,2.961,2.959,2.9587,2.957,2.9562,2.956,2.9561,2.9557,2.9557,2.9566,2.9551,2.9551,2.9551,2.9551,0,2.9811,2.9802,2.9776,2.9768,2.9756,2.9737,2.9725,2.9711,2.9693,2.9681,2.9664,2.9652,2.9626,2.9612,2.9595,2.958,2.9575,2.9565,2.9561,2.9566,2.9568,2.9559,2.9558,2.9551,2.9551,2.9551,2.9551,0,2.9825,2.9807,2.9792,2.9767,2.9761,2.9753,2.9732,2.9722,2.9708,2.9693,2.9688,2.9663,2.9645,2.9624,2.9598,2.9587,2.9573,2.9567,2.958,2.9578,2.9578,2.9578,2.958,2.958,2.9566,2.9566,2.9567,0,2.9827,2.982,2.9795,2.9787,2.9776,2.9762,2.9752,2.9732,2.9721,2.9698,2.9691,2.9673,2.9656,2.9628,2.9607,2.9587,2.958,2.9583,2.9577,2.9583,2.958,2.958,2.9579,2.9584,2.9584,2.9584,2.9584,0,2.9834,2.9826,2.9813,2.9796,2.9784,2.977,2.9754,2.9748,2.9725,2.9713,2.9696,2.9684,2.9659,2.964,2.9618,2.9603,2.959,2.9587,2.9585,2.959,2.9599,2.9594,2.9584,2.9586,2.9586,2.9586,2.9586,2.9586,2.9842,2.9835,2.9817,2.9802,2.9789,2.9775,2.9766,2.975,2.9736,2.9715,2.9704,2.9687,2.9666,2.9636,2.9622,2.9607,2.9603,2.9601,2.96,2.9599,2.9601,2.9602,2.9603,2.9603,2.9603,2.9603,2.9603,0,2.9848,2.9836,2.9823,2.9803,2.9791,2.9782,2.9764,2.9754,2.974,2.9723,2.9708,2.9688,2.967,2.9648,2.9629,2.9621,2.9614,2.9616,2.9616,2.9613,2.9607,2.961,2.9622,2.9622,2.9622,2.9622,2.9622,2.9622,2.9849,2.9837,2.9827,2.9807,2.9795,2.9779,2.977,2.9757,2.9744,2.9723,2.9708,2.9695,2.9676,2.9655,2.9638,2.9632,2.9625,2.9629,2.9621,2.9615,2.9613,2.9612,2.9615,2.9628,2.9628,2.9628,2.9628,2.9628]}]]